Tracking 32139 objects as of 18-Nov-2025
HD Live streaming from Space Station
objects crossing your sky now

KUIPER-00148

Track KUIPER-00148 now!
10-day predictions
KUIPER-00148 is classified as:


NORAD ID: 65769
Int'l Code: 2025-217H
Perigee: 464.4 km
Apogee: 474.8 km
Inclination: 51.9 °
Period: 93.8 minutes
Semi major axis: 6840 km
RCS: Unknown
Launch date: September 25, 2025
Source: United States (US)
Launch site: AIR FORCE EASTERN TEST RANGE (AFETR)
Your satellite tracking list
Your tracking list is empty




NASA's NSSDC Master Catalog

Two Line Element Set (TLE):
1 65769U 25217H   25321.83345198 -.00098173  00000-0 -29193-2 0  9990
2 65769  51.8603 185.5062 0007585 301.7177  58.3068 15.34474618  8209
Source of the keplerian elements: AFSPC